Total_Precipitation_Accumulation
2.48 2.56 2.41 2.35 2.30 2.33 2.35 2.28 2.22 2.22 2.20 2.23 2.36 2.42 2.40 2.44 2.57 2.70 2.49 2.58 2.57 2.59 2.64 2.78 2.82 3.07 3.07 2.96 3.09 3.12 3.17 3.24 2.83 2.27 2.30 2.43 2.48 2.40 2.43 2.37 2.34 2.36 2.22
2.20 2.25 2.19 2.17 2.17 2.12 2.07 2.14 2.22 2.13 2.04 2.12 2.22 2.23 2.17 2.30 2.51 2.53 2.42 2.51 2.57 2.53 2.72 3.00 2.90 3.05 3.12 3.16 3.30 3.08 3.12 3.46 3.29 2.80 2.71 2.85 2.80 2.63 2.58 2.48 2.16 2.04 2.02
1.98 2.06 2.00 1.98 1.95 1.91 1.90 1.98 2.09 2.11 2.11 2.15 2.20 2.14 2.12 2.20 2.36 2.38 2.55 2.68 2.67 2.68 2.85 2.96 3.07 3.42 3.20 3.24 3.23 3.06 3.06 3.30 3.51 3.17 2.90 3.09 3.01 2.79 2.82 2.48 2.24 2.31 2.02
1.75 1.87 2.02 2.10 2.15 2.12 2.03 2.09 2.21 2.35 2.35 2.42 2.43 2.44 2.46 2.42 2.41 2.49 2.65 2.74 2.76 2.75 2.93 3.01 3.08 3.27 3.35 3.50 3.44 3.43 3.57 3.74 3.86 3.61 3.32 3.37 3.35 3.27 3.14 2.72 2.60 2.47 2.30
1.96 2.09 2.37 2.55 2.55 2.41 2.34 2.43 2.46 2.56 2.50 2.71 2.73 2.72 2.82 2.78 2.56 2.73 2.86 2.83 3.03 2.96 3.04 3.01 3.02 3.26 3.39 3.52 3.27 3.45 3.82 3.98 4.04 4.00 3.85 3.93 3.79 3.72 3.31 2.95 2.85 2.73 2.54
1.83 2.00 2.28 2.54 2.69 2.63 2.64 2.79 2.81 2.78 2.87 3.00 2.99 2.97 2.94 2.59 2.81 3.00 3.02 3.11 3.20 3.13 3.07 3.12 3.10 3.12 3.03 3.01 3.01 3.16 3.44 3.60 3.77 3.95 3.97 3.96 3.90 3.82 3.68 3.41 3.07 2.86 2.55
2.14 2.36 2.51 2.74 2.91 2.85 2.75 2.75 2.78 2.84 2.85 2.93 3.01 3.11 2.89 2.82 2.97 2.81 2.85 2.83 2.90 2.98 3.03 3.10 2.85 2.68 2.89 2.66 2.80 2.92 2.86 2.88 3.01 3.30 3.41 3.34 3.63 3.84 3.91 3.45 3.09 2.80 2.51
2.11 2.35 2.53 2.74 2.85 2.92 2.95 2.89 2.98 3.11 3.15 3.21 3.22 3.18 3.07 2.89 2.89 2.68 2.78 2.63 2.63 2.66 2.74 2.83 2.81 2.69 2.70 2.81 2.82 2.67 2.39 2.29 2.44 2.44 2.43 2.64 3.03 3.51 3.72 3.58 3.61 3.29 2.86
2.49 2.68 2.77 2.81 2.88 2.92 2.97 3.12 3.25 3.36 3.35 3.38 3.36 3.33 3.28 3.24 3.22 2.87 2.79 2.58 2.62 2.63 2.72 2.76 2.73 2.54 2.71 2.69 2.61 2.51 2.35 2.16 2.20 2.29 2.27 2.45 2.75 3.06 3.38 3.49 3.44 3.41 2.95
2.89 2.99 3.06 3.12 3.13 3.09 3.10 3.22 3.31 3.37 3.39 3.42 3.30 3.31 3.23 3.17 3.29 3.05 2.86 2.57 2.57 2.63 2.79 2.85 2.85 2.60 2.67 2.61 2.47 2.46 2.29 2.19 2.27 2.28 2.28 2.26 2.24 2.58 2.98 2.97 3.02 3.17 2.94
3.09 3.12 3.19 3.30 3.47 3.60 3.64 3.44 3.29 3.30 3.39 3.44 3.37 3.40 3.36 3.27 3.27 2.92 2.76 2.63 2.67 2.73 2.70 2.67 2.73 2.77 2.49 2.32 2.21 2.14 2.20 2.36 2.47 2.34 2.22 2.15 2.19 2.27 2.44 2.50 2.62 2.80 2.78
3.03 3.15 3.24 3.30 3.24 3.25 3.57 3.65 3.62 3.49 3.35 3.32 3.37 3.27 3.16 3.10 2.94 2.62 2.42 2.42 2.51 2.53 2.54 2.57 2.64 2.67 2.36 2.11 1.85 1.77 1.91 1.99 2.09 2.15 2.08 2.03 2.03 2.03 2.21 2.51 2.70 2.77 2.76
2.86 2.99 3.21 3.33 3.39 3.37 3.38 3.49 3.51 3.42 3.19 2.96 2.97 3.00 2.97 2.98 2.87 2.57 2.27 2.18 2.22 2.14 2.23 2.51 2.57 2.42 2.21 2.03 1.91 1.85 1.77 1.68 1.79 1.92 1.80 1.80 1.93 2.06 2.33 2.68 2.93 3.10 3.00
2.96 2.99 3.06 3.16 3.20 3.30 3.39 3.36 3.30 3.26 3.18 2.99 2.96 2.97 2.96 2.90 2.68 2.39 2.21 2.10 2.06 2.02 2.14 2.39 2.48 2.47 2.31 2.15 2.04 1.89 1.67 1.62 1.64 1.72 1.83 1.84 1.99 2.12 2.27 2.45 2.80 3.00 3.10
2.75 2.73 2.82 2.98 3.07 3.16 3.28 3.34 3.18 3.06 3.08 2.97 3.00 3.16 3.05 2.79 2.60 2.44 2.16 2.05 2.04 2.14 2.24 2.33 2.47 2.50 2.47 2.39 2.21 2.07 1.94 1.78 1.67 1.66 1.82 1.87 1.90 1.95 1.97 2.06 2.36 2.60 2.63
2.67 2.72 2.72 2.77 2.90 3.00 2.95 2.99 3.03 2.77 2.71 2.54 2.58 2.65 2.64 2.53 2.42 2.32 2.18 2.09 2.07 2.13 2.12 2.18 2.45 2.51 2.53 2.51 2.41 2.23 2.07 1.93 1.84 1.83 1.90 1.93 1.92 1.97 2.03 2.07 2.21 2.42 2.47
2.76 2.86 2.82 2.64 2.58 2.62 2.64 2.61 2.61 2.52 2.25 2.12 2.09 2.02 1.93 1.96 1.98 2.06 2.08 2.05 2.00 1.88 1.71 1.83 2.14 2.37 2.46 2.48 2.40 2.18 2.02 2.05 2.15 2.08 2.02 2.00 2.01 2.04 2.15 2.19 2.26 2.42 2.48
2.40 2.49 2.48 2.36 2.29 2.27 2.28 2.28 2.18 2.18 2.08 1.90 1.86 1.82 1.78 1.80 1.87 2.07 2.23 2.05 1.87 1.75 1.59 1.72 1.99 2.25 2.36 2.41 2.43 2.37 2.25 2.26 2.32 2.25 2.15 2.09 2.08 2.11 2.11 2.16 2.22 2.31 2.39
2.19 2.21 2.16 2.16 2.22 2.29 2.38 2.42 2.32 2.20 2.18 2.10 1.97 1.81 1.87 1.88 1.94 2.25 2.32 1.88 1.72 1.77 1.79 1.79 1.89 2.09 2.26 2.38 2.40 2.42 2.41 2.45 2.49 2.50 2.38 2.30 2.27 2.29 2.21 2.10 2.13 2.28 2.30
2.17 2.35 2.29 2.13 2.14 2.33 2.47 2.47 2.51 2.55 2.45 2.48 2.42 2.10 1.93 1.88 1.77 2.02 2.15 2.00 1.96 1.95 1.92 1.92 1.96 2.08 2.26 2.42 2.47 2.47 2.53 2.51 2.52 2.49 2.41 2.36 2.30 2.29 2.29 2.25 2.25 2.31 2.27
2.19 2.24 2.24 2.10 2.10 2.23 2.35 2.46 2.48 2.55 2.62 2.62 2.57 2.37 2.15 1.87 1.90 2.11 2.33 2.28 2.22 2.21 2.18 2.17 2.24 2.36 2.42 2.46 2.43 2.37 2.33 2.37 2.36 2.31 2.29 2.28 2.24 2.21 2.24 2.31 2.33 2.38 2.36
2.16 2.13 2.11 2.13 2.19 2.25 2.30 2.44 2.61 2.64 2.66 2.72 2.59 2.51 2.41 2.10 2.07 2.23 2.34 2.34 2.36 2.34 2.29 2.30 2.37 2.46 2.52 2.51 2.46 2.40 2.36 2.34 2.33 2.30 2.32 2.31 2.31 2.31 2.36 2.36 2.37 2.46 2.48
1.91 1.97 2.10 2.16 2.22 2.31 2.33 2.38 2.46 2.52 2.58 2.65 2.53 2.49 2.39 2.30 2.23 2.25 2.35 2.33 2.30 2.28 2.24 2.28 2.33 2.33 2.29 2.31 2.27 2.26 2.27 2.24 2.24 2.30 2.38 2.42 2.45 2.43 2.40 2.33 2.26 2.30 2.35
1.55 1.65 1.71 1.82 1.96 2.08 2.13 2.24 2.21 2.20 2.25 2.32 2.29 2.32 2.29 2.26 2.16 2.11 2.14 2.13 2.14 2.18 2.18 2.13 2.11 2.11 2.02 1.96 1.97 1.96 1.91 1.94 1.98 2.06 2.15 2.26 2.34 2.41 2.44 2.38 2.38 2.36 2.40
1.55 1.56 1.56 1.66 1.75 1.84 1.93 2.01 2.11 2.18 2.17 2.15 2.17 2.18 2.16 2.11 2.08 2.08 2.04 1.98 1.92 1.91 1.89 1.89 1.91 1.89 1.86 1.75 1.62 1.59 1.71 1.72 1.71 1.79 1.83 1.98 2.11 2.23 2.32 2.40 2.47 2.51 2.51
1.45 1.52 1.53 1.60 1.66 1.72 1.79 1.84 1.94 1.97 1.96 1.92 1.94 2.01 2.04 2.01 1.99 1.97 1.90 1.86 1.87 1.85 1.82 1.78 1.74 1.71 1.67 1.62 1.61 1.67 1.65 1.51 1.53 1.69 1.70 1.75 1.91 2.00 2.08 2.17 2.22 2.33 2.39